Regional Weather Roundup
Issued by NWS Northern Indiana

Home | Current Version | Previous Version | Text Only | Print | Product List | Glossary Off
Versions: 1 2 3 4 5 6 7 8 9 10 11 12 13 14 15 16 17 18 19 20 21 22 23 24 25 26 27 28 29 30 31 32 33 34 35 36 37 38 39 40 41 42 43 44 45 46 47 48 49 50

000
ASUS43 KIWX 240500
RWRIWX

KIWX WEATHER ROUNDUP
NATIONAL WEATHER SERVICE NORTHERN INDIANA
100 AM EDT WED MAY 24 2017

NOTE: "FAIR" INDICATES FEW OR NO CLOUDS BELOW 12,000 FEET WITH NO
SIGNIFICANT WEATHER AND/OR OBSTRUCTIONS TO VISIBILITY.

* THESE STATIONS ARE NOT UNDER NWS QUALITY CONTROL. THEY ALSO MAY NOT
  REPORT WEATHER SUCH AS PRECIPITATION OR FOG.

INZ001>027-240600-
NORTHERN INDIANA

CITY           SKY/WX    TMP DP  RH WIND       PRES   REMARKS
MICHIGAN CITY* LGT RAIN  54  54 100 CALM      29.67F
SOUTH BEND     CLOUDY    57  54  89 N5        29.66F
GOSHEN         CLOUDY    59  53  80 E8        29.65F
MONTICELLO*    CLOUDY    60  56  87 NW6       29.63F
ANGOLA*        PTCLDY    59  54  82 NE6       29.66F
FORT WAYNE     CLOUDY    62  49  62 NE9       29.63F
PERU/GRISSOM   CLOUDY    61  56  83 NE9       29.61F

$$
INZ028>050-240600-
CENTRAL INDIANA

CITY           SKY/WX    TMP DP  RH WIND       PRES   REMARKS
LAFAYETTE      CLOUDY    59  56  89 N8        29.62F
KOKOMO*        CLOUDY    62  55  77 NE8       29.63F
MUNCIE*        CLOUDY    64  53  67 CALM      29.62F
INDIANAPOLIS   CLOUDY    62  51  67 W6        29.61F

$$
MIZ043>046-050>051-056>058-064>065-071>073-077>080-240600-
SOUTHWEST LOWER MICHIGAN

CITY           SKY/WX    TMP DP  RH WIND       PRES   REMARKS
BATTLE CREEK   CLOUDY    58  56  93 NE9       29.69F
BENTON HARBOR  CLOUDY    56  54  93 CALM      29.67F
COLDWATER*     CLOUDY    57  55  94 NE6       29.67F
HILLSDALE*     PTCLDY    55  52  88 NE6       29.68F
HOLLAND        CLOUDY    57  55  93 E5        29.70F
GRAND RAPIDS   CLOUDY    56  55  97 NE5       29.70F
KALAMAZOO      CLOUDY    58  53  84 NE5       29.68F
STURGIS*       CLOUDY    58  54  88 E12       29.66F
THREE RIVERS*  FAIR      57  55  91 E5        29.67F

$$
OHZ001>008-015>018-024>025-240600-
NORTHWEST OHIO

CITY           SKY/WX    TMP DP  RH WIND       PRES   REMARKS
DEFIANCE       PTCLDY    60  48  64 NE7       29.65F
FINDLAY        CLOUDY    61  48  62 E8        29.63F
TOLEDO EXPRESS PTCLDY    59  51  75 N6        29.65F
TOLEDO METCALF CLOUDY    62  49  62 NE7       29.66F
LIMA           CLOUDY    58  54  86 E3        29.63F

$$
AND FOR LAKE MICHIGAN COASTAL AND OPEN LAKE BUOY OBSERVATIONS

STATION/POSITION TEMP    WIND        PRES    VSBY  WAVE
                 AIR SEA DIR/SP/G                  HT/PER
                 (F)     (DEG/KT/KT) (MB)    (MI)  (FT/S)
CALUMET HARBOR    54      10/  3/  4 1004.6
MICHIGAN CITY     54      30/  9/ 10   N/A
BURNS HARBOR      54      60/  8/ 12 1005.4F
SOUTH LAKE BUOY   50 45   30/  4/  6 1006.2          0
4 MI NW BRIDGMAN  56 56   60/ 10/ 12 1005.0F         1/ 2
MICHIGAN CITY     54 53   60/  8/ 10   N/A           1/ 2

$$
&&



USA.gov is the U.S. government's official web portal to all federal, state and local government web resources and services.